SCP
0 -0 0 -0 -0 -0 -0 -0 -0 -0 -0 0 0 -0 0 0 0 0 0 0 -0 -0 -0 -0 -0 0 0 0 0 0 0 0 0 0 0 -0 -0 -0 -0 -0 -0 -0 -0
0 -0 -0 -0 -0 -0 -0 -0 -0 -0 -0 0 0 0 0 0 0 0 0 0 0 0 0 0 0 0 0 0 0 0 0 0 0 0 0 0 0 0 0 0 0 0 0
0 -0 -0 -0 -0 -0 -0 -0 -0 -0 -0 -0 -0 0 0 0 0 0 0 0 0 0 0 0 0 0 0 0 0 0 0 0 0 0 0 0 0 0 0 0 0 0 0
0 -0 -0 -0 -0 -0 -0 -0 -0 -0 -0 -0 -0 -0 -0 0 0 -0 0 0 0 -0 -0 0 0 0 0 0 0 0 0 0 0 0 0 0 0 0 0 0 0 0 0
-0 -0 -0 -0 -0 -0 -0 -0 -0 -0 -0 -0 -0 -0 -0 -0 -0 -0 0 0 -0 -0 -0 0 -0 -0 0 0 0 0 0 0 0 0 0 0 0 0 0 0 0 0 0
0 -0 -0 0 0 -0 -0 -0 -0 -0 -0 -0 -0 -0 -0 0 -0 0 0 -0 -0 0 0 0 0 0 0 0 0 0 0 0 0 0 0 0 0 0 0 0 0 0 0
-0 0 -0 -0 -0 -0 -0 -0 -0 -0 -0 -0 -0 0 0 0 0 0 0 0 0 0 0 0 0 0 0 0 0 0 0 0 0 0 0 0 0 0 0 0 0 0 0
0 -0 -0 0 -0 -0 -0 -0 -0 -0 0 0 0 0 0 0 0 0 0 0 0 0 0 0 0 0 0 0 0 0 0 0 0 0 0 0 0 0 0 0 0 0 0
-0 0 0 -0 -0 -0 -0 -0 0 0 0 0 0 0 0 0 0 0 0 0 0 0 0 0 0 0 0 0 0 0 0 0 0 0 0 0 0 0 0 0 0 0 0
-0 0 0 0 0 -0 0 -0 -0 0 0 0 0 0 0 0 0 0 0 0 0 0 0 0 0 0 0 0 0 0 0 0 0 0 0 0 0 0 0 0 0 0 0
0 0 0 0 0 0 0 0 0 -0 0 0 0 0 0 0 0 0 0 0 0 0 0 0 0 0 0 0 0 0 0 0 0 0 0 0 0 0 0 0 0 0 0
0 0 0 0 0 0 0 0 0 0 0 0 0 0 0 0 0 0 0 0 0 0 0 0 0 0 0 0 0 0 0 0 0 0 0 0 0 0 0 0 0 0 0
0 0 0 0 0 0 0 0 0 0 0 0 0 0 0 0 0 0 0 0 0 0 0 0 0 0 0 0 0 0 0 0 0 0 0 0 0 0 0 0 0 0 0
0 0 0 0 0 0 0 0 0 0 0 1 0 0 0 0 0 0 0 0 0 0 0 0 0 0 0 0 0 0 0 0 0 0 0 0 0 0 0 0 0 0 0
0 0 0 0 0 0 0 0 0 0 0 0 0 0 0 0 0 0 0 0 0 0 0 0 0 0 0 0 0 0 0 0 0 0 0 0 0 0 0 0 0 0 0
0 0 0 0 0 0 0 0 0 0 0 0 0 0 0 0 0 0 0 0 0 0 0 0 0 0 0 0 0 0 0 0 0 0 0 0 0 0 0 0 0 0 0
0 0 0 0 0 0 0 0 0 0 0 0 0 0 0 0 0 0 0 0 0 0 0 0 0 0 0 0 0 0 0 0 0 0 0 0 0 0 0 0 0 0 0
0 0 0 0 0 0 0 0 0 0 0 0 0 0 0 0 0 0 0 0 0 0 0 0 0 0 0 0 0 0 0 0 0 0 0 0 0 0 0 0 0 0 0
0 0 0 0 0 0 0 0 0 0 0 0 0 0 0 0 0 0 0 0 0 0 0 0 0 0 0 0 0 0 0 0 0 0 0 0 0 0 0 0 0 0 0
0 0 0 0 0 0 0 0 0 0 0 0 0 0 0 0 0 0 0 0 0 0 0 0 0 0 0 0 0 0 0 0 0 0 0 0 0 0 0 0 0 0 0
0 0 0 0 0 0 0 0 0 0 0 0 0 0 0 0 0 0 0 0 0 0 0 0 0 0 0 0 0 0 0 0 0 0 0 0 0 0 0 0 0 0 0
0 0 0 0 0 0 0 0 0 0 0 0 0 0 0 0 0 0 0 0 0 0 0 0 0 0 0 0 0 0 0 0 0 0 0 0 0 0 0 0 0 0 0
0 0 0 0 0 0 0 0 0 0 0 0 0 0 0 0 0 0 0 0 0 0 0 0 0 0 0 0 0 0 0 0 0 0 0 0 0 0 0 0 0 0 0
0 0 0 0 0 0 0 0 0 0 0 0 0 0 0 0 0 0 0 0 0 0 0 0 0 0 0 0 0 0 0 0 0 0 0 0 0 0 0 0 0 0 0
0 0 0 0 0 0 0 0 0 0 0 0 0 0 0 0 0 0 0 0 0 0 0 0 0 0 0 0 0 0 0 0 0 0 0 0 0 0 0 0 0 0 0
0 0 0 0 0 0 0 0 0 0 0 0 0 0 0 0 0 0 0 0 0 0 0 0 0 0 0 0 0 0 0 0 0 0 0 0 0 -0 0 -0 0 0 0
Wind_Speed_500mb
18 32 30 26 23 19 19 18 16 14 12 12 12 12 12 12 13 14 16 18 22 20 18 17 16 15 14 13 11 10 13 15 12 11 8 10 13 12 13 15 17 18 17
17 30 28 26 24 20 18 17 15 11 7 8 9 9 9 9 10 11 12 16 19 18 15 15 15 15 14 13 13 12 10 10 8 7 8 11 8 8 6 6 7 11 15
17 29 27 28 26 23 20 17 14 10 6 5 6 8 7 8 8 9 10 13 18 17 13 13 12 12 12 12 11 10 8 6 6 8 9 12 12 11 5 3 2 2 1
18 29 27 28 25 22 19 17 14 9 4 2 4 6 7 7 6 4 9 14 17 14 10 10 10 10 10 9 8 8 6 6 6 6 10 11 5 12 15 13 9 7 5
16 29 28 27 24 22 20 18 15 11 8 2 4 6 6 6 5 5 8 14 22 15 11 8 7 7 7 7 8 7 6 5 5 5 5 7 8 9 13 15 14 12 11
12 22 29 28 26 23 22 20 18 14 12 6 4 6 7 7 6 7 7 12 23 22 18 14 8 8 8 8 9 9 8 7 6 6 5 5 4 12 15 15 14 14 15
16 17 23 28 28 26 24 22 22 20 16 11 9 9 7 4 6 8 11 13 17 19 17 16 10 9 8 9 10 8 7 6 6 7 8 9 12 13 13 13 11 12 12
14 19 20 24 30 29 26 24 22 23 20 17 15 10 7 4 4 6 7 9 13 15 15 16 11 10 10 9 8 8 6 4 4 4 5 7 8 10 11 11 11 11 12
12 18 21 22 27 32 32 29 24 22 22 19 16 14 12 11 9 7 10 13 14 16 16 16 14 12 10 9 6 5 4 3 2 3 4 7 6 6 9 10 10 11 12
9 11 15 20 26 30 32 33 29 28 26 23 20 17 15 16 17 15 14 19 18 20 19 16 16 16 12 10 6 4 4 5 5 5 6 7 9 9 9 10 9 11 12
17 17 17 19 21 25 30 33 35 31 29 24 20 18 18 17 19 18 20 21 19 21 25 23 18 16 16 13 10 7 7 8 8 9 9 10 10 11 11 12 11 11 12
23 25 26 25 25 25 25 27 28 30 29 24 22 21 20 21 22 24 24 19 19 22 25 25 29 25 21 19 16 13 12 12 12 12 13 12 11 12 13 14 13 13 13
11 13 18 25 29 30 29 27 26 27 27 26 24 25 26 26 31 27 24 21 22 21 24 26 27 28 28 26 23 19 18 17 16 16 16 16 15 14 13 14 15 15 16
11 12 13 17 24 31 33 30 28 22 25 26 31 24 20 21 26 22 22 20 21 19 23 26 26 26 33 30 26 22 22 23 22 22 22 21 19 18 17 16 16 17 17
11 12 12 12 15 23 29 32 28 25 27 28 27 26 27 26 17 21 18 21 20 23 18 20 22 27 29 31 32 24 23 24 25 27 27 26 25 24 23 21 19 19 19
6 9 11 11 9 13 26 32 32 28 25 26 24 21 21 26 27 28 26 25 23 26 25 23 23 25 27 28 31 33 29 26 25 26 29 30 30 30 29 28 27 25 22
3 4 2 4 6 10 27 36 32 26 21 20 16 11 5 9 16 17 20 23 27 28 26 27 32 34 30 34 32 35 35 35 31 31 32 32 32 32 33 32 30 30 30
11 11 13 12 11 16 26 31 30 26 22 19 13 8 8 13 16 18 15 14 14 20 22 24 30 35 38 41 35 37 39 39 40 39 38 39 39 39 38 36 36 35 33
16 20 23 25 25 24 29 31 27 22 20 15 10 5 7 7 9 9 10 18 17 18 21 24 25 28 31 34 37 36 36 34 34 37 45 51 50 46 45 45 42 41 39
22 24 27 30 33 32 32 32 33 27 23 15 8 6 4 6 7 10 13 14 17 18 20 23 23 23 24 27 29 30 31 34 37 37 39 42 50 53 51 47 46 48 47
29 32 35 37 38 38 35 30 25 24 23 17 11 8 2 2 4 6 10 13 16 17 19 19 21 24 27 31 36 39 40 38 30 35 36 33 31 30 31 34 38 42 46
37 37 37 36 36 34 33 34 32 31 28 24 21 18 15 11 9 8 7 7 9 11 12 16 18 19 24 29 30 30 15 22 19 16 31 33 36 42 44 45 46 44 43
49 51 51 50 48 46 41 37 34 31 29 25 22 18 17 16 16 16 17 18 18 18 19 21 22 24 25 26 26 18 14 11 43 11 30 27 30 36 46 49 53 52 50
49 48 45 42 39 38 34 29 27 23 21 21 17 15 14 13 14 15 17 18 20 23 23 27 28 30 30 32 29 28 20 21 18 28 25 46 42 54 50 47 49 52 55
48 44 41 38 35 32 26 20 14 13 18 19 17 14 14 15 16 18 19 21 21 24 27 28 29 32 33 35 37 39 36 28 16 30 47 48 63 61 59 54 55 48 45
47 42 39 35 31 29 24 22 19 17 20 18 16 12 13 13 14 16 18 20 23 24 27 30 32 33 35 35 36 37 39 36 33 32 45 52 64 57 74 76 58 58 42
Wind_Direction_500mb
180 178 182 169 163 161 156 152 142 127 111 97 88 80 70 62 54 46 43 35 23 29 38 49 52 47 44 47 48 56 92 103 99 90 64 47 67 79 95 88 91 88 89
179 180 181 175 173 168 168 161 155 143 114 87 86 84 80 76 64 56 53 22 18 15 33 38 43 49 50 43 44 47 67 79 75 59 40 38 36 38 58 72 78 87 86
176 183 180 177 177 174 173 175 177 166 136 97 66 58 57 58 56 80 16 6 354 355 24 29 34 40 44 42 48 52 39 41 56 42 35 58 19 18 3 9 11 61 159
165 180 183 182 181 181 180 180 186 195 202 111 34 26 26 31 49 50 356 341 341 340 14 13 21 23 26 26 26 31 28 13 17 40 58 64 63 28 36 18 337 308 284
155 180 186 188 192 191 187 191 197 208 209 247 344 353 356 5 17 17 350 346 3 10 6 352 356 2 358 348 341 341 342 347 352 7 35 71 29 330 337 347 349 331 287
147 181 190 193 199 201 204 206 211 217 216 239 286 316 327 334 343 351 352 358 2 14 15 8 345 345 337 325 316 308 304 300 305 303 309 324 346 310 322 333 338 338 342
145 164 192 202 206 210 215 215 213 216 223 244 271 287 302 310 327 326 334 343 344 4 13 20 8 354 347 330 319 307 296 288 277 282 293 291 296 301 308 314 316 308 319
146 164 180 201 212 216 218 222 217 216 226 241 258 261 264 255 328 336 328 333 332 346 6 16 13 7 356 343 330 317 311 303 298 301 300 292 309 315 323 324 318 302 302
163 170 181 193 205 215 222 230 225 226 234 239 247 252 251 246 275 289 303 316 322 331 338 355 3 360 352 355 351 333 330 336 334 328 314 304 316 320 322 321 318 307 301
211 205 204 200 200 208 216 224 220 229 241 249 254 260 262 258 262 268 289 300 310 321 315 329 341 343 344 341 336 315 313 308 306 302 301 301 309 315 316 311 308 302 299
237 240 239 234 227 217 213 216 219 223 236 245 251 255 262 261 265 280 290 292 305 312 319 323 313 323 330 327 318 300 289 292 295 298 302 305 308 311 313 312 311 307 303
241 245 243 241 238 235 230 219 217 213 221 235 237 241 243 255 259 272 282 289 294 299 306 322 330 326 326 320 312 297 284 283 288 293 294 295 300 306 309 310 313 310 309
228 239 241 237 235 232 228 221 212 209 204 218 222 235 241 242 249 258 275 290 299 305 306 313 319 325 326 320 311 301 289 284 283 284 286 290 294 297 298 302 306 311 312
272 262 251 241 235 229 225 221 209 200 197 216 217 223 232 250 260 265 269 273 290 304 301 306 310 315 322 321 317 306 297 291 288 287 287 287 287 289 290 292 297 302 305
271 270 267 263 248 234 220 215 202 192 192 206 216 228 234 235 240 253 259 273 272 283 276 296 295 305 317 316 319 315 309 295 286 283 283 284 284 283 283 282 281 285 295
263 255 263 270 261 224 202 196 192 187 192 203 214 229 239 246 251 248 244 252 260 267 272 284 283 288 290 298 308 312 310 311 301 289 282 281 281 283 285 286 284 277 271
48 36 355 251 233 196 184 185 185 179 175 180 171 165 213 270 272 270 268 261 265 256 269 281 287 293 289 291 290 292 295 296 297 307 302 292 284 280 280 280 281 283 284
99 96 92 91 110 142 157 164 168 167 157 152 163 162 248 264 270 274 278 260 280 274 287 283 283 283 288 289 285 287 286 291 304 303 300 301 296 290 282 276 274 274 276
104 96 97 103 109 121 140 152 155 156 157 154 139 179 238 270 285 298 296 291 301 302 306 304 303 297 296 294 296 291 290 288 288 290 298 303 296 294 288 284 278 274 273
122 114 109 110 112 119 129 133 133 134 123 124 153 173 233 252 275 295 302 303 307 313 306 304 304 303 300 300 300 298 297 298 296 295 291 294 300 298 288 282 277 275 273
126 116 113 111 112 117 122 126 132 135 128 135 130 119 154 249 288 293 292 284 284 284 297 307 313 312 310 311 311 305 304 303 297 295 293 296 300 297 300 300 291 282 273
125 124 119 114 111 113 116 116 119 116 117 109 100 95 87 72 59 51 32 14 355 338 320 318 315 317 319 322 330 325 323 312 306 312 296 288 287 291 294 299 299 297 294
125 121 119 116 116 113 108 103 104 107 104 100 95 87 77 61 50 44 40 38 30 25 22 19 12 6 3 358 357 9 338 313 318 293 304 296 299 295 298 296 294 290 288
128 124 122 120 118 114 109 102 102 102 105 102 96 82 69 56 45 37 34 29 23 22 18 16 14 12 8 8 10 13 3 330 325 317 314 313 310 312 313 311 307 301 291
136 132 129 126 120 114 114 111 103 107 119 108 93 85 71 58 46 39 33 28 22 20 18 15 10 7 6 3 359 354 349 345 331 313 312 311 312 319 318 319 318 320 316
147 143 136 134 133 133 139 136 124 95 98 95 87 69 48 33 23 13 10 6 7 9 6 4 3 1 1 357 353 347 342 337 322 316 308 308 311 319 309 315 315 316 311
Wind_Speed_850mb
18 32 30 26 23 19 19 18 16 14 12 12 12 12 12 12 13 14 16 18 22 20 18 17 16 15 14 13 11 10 13 15 12 11 8 10 13 12 13 15 17 18 17
17 30 28 26 24 20 18 17 15 11 7 8 9 9 9 9 10 11 12 16 19 18 15 15 15 15 14 13 13 12 10 10 8 7 8 11 8 8 6 6 7 11 15
17 29 27 28 26 23 20 17 14 10 6 5 6 8 7 8 8 9 10 13 18 17 13 13 12 12 12 12 11 10 8 6 6 8 9 12 12 11 5 3 2 2 1
18 29 27 28 25 22 19 17 14 9 4 2 4 6 7 7 6 4 9 14 17 14 10 10 10 10 10 9 8 8 6 6 6 6 10 11 5 12 15 13 9 7 5
16 29 28 27 24 22 20 18 15 11 8 2 4 6 6 6 5 5 8 14 22 15 11 8 7 7 7 7 8 7 6 5 5 5 5 7 8 9 13 15 14 12 11
12 22 29 28 26 23 22 20 18 14 12 6 4 6 7 7 6 7 7 12 23 22 18 14 8 8 8 8 9 9 8 7 6 6 5 5 4 12 15 15 14 14 15
16 17 23 28 28 26 24 22 22 20 16 11 9 9 7 4 6 8 11 13 17 19 17 16 10 9 8 9 10 8 7 6 6 7 8 9 12 13 13 13 11 12 12
14 19 20 24 30 29 26 24 22 23 20 17 15 10 7 4 4 6 7 9 13 15 15 16 11 10 10 9 8 8 6 4 4 4 5 7 8 10 11 11 11 11 12
12 18 21 22 27 32 32 29 24 22 22 19 16 14 12 11 9 7 10 13 14 16 16 16 14 12 10 9 6 5 4 3 2 3 4 7 6 6 9 10 10 11 12
9 11 15 20 26 30 32 33 29 28 26 23 20 17 15 16 17 15 14 19 18 20 19 16 16 16 12 10 6 4 4 5 5 5 6 7 9 9 9 10 9 11 12
17 17 17 19 21 25 30 33 35 31 29 24 20 18 18 17 19 18 20 21 19 21 25 23 18 16 16 13 10 7 7 8 8 9 9 10 10 11 11 12 11 11 12
23 25 26 25 25 25 25 27 28 30 29 24 22 21 20 21 22 24 24 19 19 22 25 25 29 25 21 19 16 13 12 12 12 12 13 12 11 12 13 14 13 13 13
11 13 18 25 29 30 29 27 26 27 27 26 24 25 26 26 31 27 24 21 22 21 24 26 27 28 28 26 23 19 18 17 16 16 16 16 15 14 13 14 15 15 16
11 12 13 17 24 31 33 30 28 22 25 26 31 24 20 21 26 22 22 20 21 19 23 26 26 26 33 30 26 22 22 23 22 22 22 21 19 18 17 16 16 17 17
11 12 12 12 15 23 29 32 28 25 27 28 27 26 27 26 17 21 18 21 20 23 18 20 22 27 29 31 32 24 23 24 25 27 27 26 25 24 23 21 19 19 19
6 9 11 11 9 13 26 32 32 28 25 26 24 21 21 26 27 28 26 25 23 26 25 23 23 25 27 28 31 33 29 26 25 26 29 30 30 30 29 28 27 25 22
3 4 2 4 6 10 27 36 32 26 21 20 16 11 5 9 16 17 20 23 27 28 26 27 32 34 30 34 32 35 35 35 31 31 32 32 32 32 33 32 30 30 30
11 11 13 12 11 16 26 31 30 26 22 19 13 8 8 13 16 18 15 14 14 20 22 24 30 35 38 41 35 37 39 39 40 39 38 39 39 39 38 36 36 35 33
16 20 23 25 25 24 29 31 27 22 20 15 10 5 7 7 9 9 10 18 17 18 21 24 25 28 31 34 37 36 36 34 34 37 45 51 50 46 45 45 42 41 39
22 24 27 30 33 32 32 32 33 27 23 15 8 6 4 6 7 10 13 14 17 18 20 23 23 23 24 27 29 30 31 34 37 37 39 42 50 53 51 47 46 48 47
29 32 35 37 38 38 35 30 25 24 23 17 11 8 2 2 4 6 10 13 16 17 19 19 21 24 27 31 36 39 40 38 30 35 36 33 31 30 31 34 38 42 46
37 37 37 36 36 34 33 34 32 31 28 24 21 18 15 11 9 8 7 7 9 11 12 16 18 19 24 29 30 30 15 22 19 16 31 33 36 42 44 45 46 44 43
49 51 51 50 48 46 41 37 34 31 29 25 22 18 17 16 16 16 17 18 18 18 19 21 22 24 25 26 26 18 14 11 43 11 30 27 30 36 46 49 53 52 50
49 48 45 42 39 38 34 29 27 23 21 21 17 15 14 13 14 15 17 18 20 23 23 27 28 30 30 32 29 28 20 21 18 28 25 46 42 54 50 47 49 52 55
48 44 41 38 35 32 26 20 14 13 18 19 17 14 14 15 16 18 19 21 21 24 27 28 29 32 33 35 37 39 36 28 16 30 47 48 63 61 59 54 55 48 45
47 42 39 35 31 29 24 22 19 17 20 18 16 12 13 13 14 16 18 20 23 24 27 30 32 33 35 35 36 37 39 36 33 32 45 52 64 57 74 76 58 58 42
Wind_Direction_850mb
180 178 182 169 163 161 156 152 142 127 111 97 88 80 70 62 54 46 43 35 23 29 38 49 52 47 44 47 48 56 92 103 99 90 64 47 67 79 95 88 91 88 89
179 180 181 175 173 168 168 161 155 143 114 87 86 84 80 76 64 56 53 22 18 15 33 38 43 49 50 43 44 47 67 79 75 59 40 38 36 38 58 72 78 87 86
176 183 180 177 177 174 173 175 177 166 136 97 66 58 57 58 56 80 16 6 354 355 24 29 34 40 44 42 48 52 39 41 56 42 35 58 19 18 3 9 11 61 159
165 180 183 182 181 181 180 180 186 195 202 111 34 26 26 31 49 50 356 341 341 340 14 13 21 23 26 26 26 31 28 13 17 40 58 64 63 28 36 18 337 308 284
155 180 186 188 192 191 187 191 197 208 209 247 344 353 356 5 17 17 350 346 3 10 6 352 356 2 358 348 341 341 342 347 352 7 35 71 29 330 337 347 349 331 287
147 181 190 193 199 201 204 206 211 217 216 239 286 316 327 334 343 351 352 358 2 14 15 8 345 345 337 325 316 308 304 300 305 303 309 324 346 310 322 333 338 338 342
145 164 192 202 206 210 215 215 213 216 223 244 271 287 302 310 327 326 334 343 344 4 13 20 8 354 347 330 319 307 296 288 277 282 293 291 296 301 308 314 316 308 319
146 164 180 201 212 216 218 222 217 216 226 241 258 261 264 255 328 336 328 333 332 346 6 16 13 7 356 343 330 317 311 303 298 301 300 292 309 315 323 324 318 302 302
163 170 181 193 205 215 222 230 225 226 234 239 247 252 251 246 275 289 303 316 322 331 338 355 3 360 352 355 351 333 330 336 334 328 314 304 316 320 322 321 318 307 301
211 205 204 200 200 208 216 224 220 229 241 249 254 260 262 258 262 268 289 300 310 321 315 329 341 343 344 341 336 315 313 308 306 302 301 301 309 315 316 311 308 302 299
237 240 239 234 227 217 213 216 219 223 236 245 251 255 262 261 265 280 290 292 305 312 319 323 313 323 330 327 318 300 289 292 295 298 302 305 308 311 313 312 311 307 303
241 245 243 241 238 235 230 219 217 213 221 235 237 241 243 255 259 272 282 289 294 299 306 322 330 326 326 320 312 297 284 283 288 293 294 295 300 306 309 310 313 310 309
228 239 241 237 235 232 228 221 212 209 204 218 222 235 241 242 249 258 275 290 299 305 306 313 319 325 326 320 311 301 289 284 283 284 286 290 294 297 298 302 306 311 312
272 262 251 241 235 229 225 221 209 200 197 216 217 223 232 250 260 265 269 273 290 304 301 306 310 315 322 321 317 306 297 291 288 287 287 287 287 289 290 292 297 302 305
271 270 267 263 248 234 220 215 202 192 192 206 216 228 234 235 240 253 259 273 272 283 276 296 295 305 317 316 319 315 309 295 286 283 283 284 284 283 283 282 281 285 295
263 255 263 270 261 224 202 196 192 187 192 203 214 229 239 246 251 248 244 252 260 267 272 284 283 288 290 298 308 312 310 311 301 289 282 281 281 283 285 286 284 277 271
48 36 355 251 233 196 184 185 185 179 175 180 171 165 213 270 272 270 268 261 265 256 269 281 287 293 289 291 290 292 295 296 297 307 302 292 284 280 280 280 281 283 284
99 96 92 91 110 142 157 164 168 167 157 152 163 162 248 264 270 274 278 260 280 274 287 283 283 283 288 289 285 287 286 291 304 303 300 301 296 290 282 276 274 274 276
104 96 97 103 109 121 140 152 155 156 157 154 139 179 238 270 285 298 296 291 301 302 306 304 303 297 296 294 296 291 290 288 288 290 298 303 296 294 288 284 278 274 273
122 114 109 110 112 119 129 133 133 134 123 124 153 173 233 252 275 295 302 303 307 313 306 304 304 303 300 300 300 298 297 298 296 295 291 294 300 298 288 282 277 275 273
126 116 113 111 112 117 122 126 132 135 128 135 130 119 154 249 288 293 292 284 284 284 297 307 313 312 310 311 311 305 304 303 297 295 293 296 300 297 300 300 291 282 273
125 124 119 114 111 113 116 116 119 116 117 109 100 95 87 72 59 51 32 14 355 338 320 318 315 317 319 322 330 325 323 312 306 312 296 288 287 291 294 299 299 297 294
125 121 119 116 116 113 108 103 104 107 104 100 95 87 77 61 50 44 40 38 30 25 22 19 12 6 3 358 357 9 338 313 318 293 304 296 299 295 298 296 294 290 288
128 124 122 120 118 114 109 102 102 102 105 102 96 82 69 56 45 37 34 29 23 22 18 16 14 12 8 8 10 13 3 330 325 317 314 313 310 312 313 311 307 301 291
136 132 129 126 120 114 114 111 103 107 119 108 93 85 71 58 46 39 33 28 22 20 18 15 10 7 6 3 359 354 349 345 331 313 312 311 312 319 318 319 318 320 316
147 143 136 134 133 133 139 136 124 95 98 95 87 69 48 33 23 13 10 6 7 9 6 4 3 1 1 357 353 347 342 337 322 316 308 308 311 319 309 315 315 316 311